GW0658 Weather Reports


Display with metric or nautical units.
time (UTC)temp
F
wind
direction
speed
MPH
gust
MPH
rain 1hr
in
rain 24hr
in
rain mn
in
humidity
%
barometer
mb
20260902161542 56 210 1.0 4.0 0.00 0.00 0.00 62 1019.8
20260902161025 56 31 1.0 4.0 0.00 0.00 0.00 63 1019.7
20260902160525 56 226 1.0 4.0 0.00 0.00 0.00 63 1019.6
20260902160040 55 0 0.0 4.0 0.00 0.00 0.00 64 1019.7
20260902155521 55 175 0.0 4.0 0.00 0.00 0.00 66 1019.7
20260902155021 54 209 0.0 2.0 0.00 0.00 0.00 68 1019.6
20260902154549 54 0 0.0 0.0 0.00 0.00 0.00 70 1019.6
20260902154025 54 0 0.0 1.0 0.00 0.00 0.00 69 1019.7
20260902153528 54 0 0.0 2.0 0.00 0.00 0.00 68 1019.7
20260902153044 54 0 0.0 2.0 0.00 0.00 0.00 67 1019.6
20260902152522 54 181 0.0 2.0 0.00 0.00 0.00 67 1019.6
20260902152023 54 181 0.0 3.0 0.00 0.00 0.00 66 1019.6
20260902151540 53 0 0.0 3.0 0.00 0.00 0.00 67 1019.6
20260902151026 53 200 0.0 2.0 0.00 0.00 0.00 68 1019.6
20260902150524 53 0 0.0 0.0 0.00 0.00 0.00 69 1019.5
20260902150055 52 0 0.0 0.0 0.00 0.00 0.00 71 1019.5
20260902145524 52 0 0.0 0.0 0.00 0.00 0.00 72 1019.6
20260902145026 52 0 0.0 0.0 0.00 0.00 0.00 73 1019.7
20260902144555 51 0 0.0 0.0 0.00 0.00 0.00 73 1019.6
20260902144024 51 0 0.0 0.0 0.00 0.00 0.00 73 1019.6
20260902143523 51 0 0.0 0.0 0.00 0.00 0.00 73 1019.6
20260902143041 50 0 0.0 0.0 0.00 0.00 0.00 73 1019.6
20260902142523 50 0 0.0 0.0 0.00 0.00 0.00 73 1019.3
20260902142025 50 0 0.0 0.0 0.00 0.00 0.00 73 1019.1
20260902141540 50 0 0.0 0.0 0.00 0.00 0.00 72 1019.0
20260902141024 50 0 0.0 0.0 0.00 0.00 0.00 72 1018.9
20260902140524 50 0 0.0 0.0 0.00 0.00 0.00 72 1018.9
20260902140044 50 0 0.0 0.0 0.00 0.00 0.00 73 1018.7
20260902135527 49 0 0.0 0.0 0.00 0.00 0.00 73 1018.7
20260902135023 49 0 0.0 0.0 0.00 0.00 0.00 73 1018.7
20260902134547 49 0 0.0 0.0 0.00 0.00 0.00 73 1018.8
20260902134025 49 0 0.0 0.0 0.00 0.00 0.00 73 1018.7
20260902133529 49 0 0.0 0.0 0.00 0.00 0.00 73 1018.6
20260902133102 49 0 0.0 0.0 0.00 0.00 0.00 73 1018.7
20260902132523 49 0 0.0 0.0 0.00 0.00 0.00 73 1018.4
20260902132023 49 0 0.0 0.0 0.00 0.00 0.00 73 1018.3
20260902131558 49 0 0.0 0.0 0.00 0.00 0.00 73 1018.3
20260902131023 49 0 0.0 0.0 0.00 0.00 0.00 73 1018.3
20260902130523 49 0 0.0 2.0 0.00 0.00 0.00 73 1018.2
20260902130045 49 0 0.0 2.0 0.00 0.00 0.00 73 1018.2
20260902125527 49 0 1.0 2.0 0.00 0.00 0.00 73 1018.3
20260902125025 49 55 1.0 2.0 0.00 0.00 0.00 73 1018.1
20260902124542 49 0 0.0 0.0 0.00 0.00 0.00 73 1018.1
20260902124023 49 0 0.0 0.0 0.00 0.00 0.00 73 1018.1
20260902123524 49 0 0.0 0.0 0.00 0.00 0.00 73 1018.1
20260902123053 49 0 0.0 0.0 0.00 0.00 0.00 72 1018.1
20260902122527 49 0 0.0 0.0 0.00 0.00 0.00 73 1018.0
20260902122023 49 0 0.0 0.0 0.00 0.00 0.00 73 1018.0
20260902121548 49 0 0.0 0.0 0.00 0.00 0.00 73 1017.9
20260902121026 49 0 0.0 0.0 0.00 0.00 0.00 73 1017.9
20260902120523 49 0 0.0 0.0 0.00 0.00 0.00 73 1017.8
20260902120041 49 0 0.0 0.0 0.00 0.00 0.00 73 1018.0
20260902115524 49 0 0.0 0.0 0.00 0.00 0.00 73 1018.0
20260902115021 49 0 0.0 2.0 0.00 0.00 0.00 73 1018.0
20260902114542 49 0 0.0 3.0 0.00 0.00 0.00 73 1018.1
20260902114021 49 50 1.0 3.0 0.00 0.00 0.00 72 1018.2
20260902113519 49 0 0.0 3.0 0.00 0.00 0.00 72 1018.3
20260902113053 49 58 1.0 3.0 0.00 0.00 0.00 71 1018.3
20260902112521 50 0 0.0 0.0 0.00 0.00 0.00 71 1018.3
20260902112024 50 0 0.0 0.0 0.00 0.00 0.00 70 1018.4
20260902111543 50 0 0.0 0.0 0.00 0.00 0.00 69 1018.5
20260902111023 51 0 0.0 0.0 0.00 0.00 0.00 69 1018.6
20260902110521 51 0 0.0 2.0 0.00 0.00 0.00 68 1018.4
20260902110039 51 0 0.0 2.0 0.00 0.00 0.00 68 1018.4
20260902105520 52 89 0.0 4.0 0.00 0.00 0.00 67 1018.6
20260902105028 52 0 0.0 4.0 0.00 0.00 0.00 67 1018.6
20260902104559 52 0 0.0 0.0 0.00 0.00 0.00 67 1018.6
20260902104026 52 0 0.0 2.0 0.00 0.00 0.00 67 1018.6
20260902103529 52 0 0.0 2.0 0.00 0.00 0.00 67 1018.6
20260902103053 52 0 0.0 0.0 0.00 0.00 0.00 67 1018.5
20260902102523 51 0 0.0 0.0 0.00 0.00 0.00 67 1018.4
20260902102023 51 0 0.0 0.0 0.00 0.00 0.00 68 1018.3
20260902101549 51 0 0.0 0.0 0.00 0.00 0.00 68 1018.4
20260902101023 50 0 0.0 0.0 0.00 0.00 0.00 68 1018.5
20260902100522 50 0 0.0 0.0 0.00 0.00 0.00 69 1018.5
20260902100041 50 0 0.0 0.0 0.00 0.00 0.00 69 1018.5
20260902095520 50 0 0.0 0.0 0.00 0.00 0.00 69 1018.4
20260902095024 50 0 0.0 0.0 0.00 0.00 0.00 69 1018.4
20260902094544 50 0 0.0 2.0 0.00 0.00 0.00 69 1018.4
20260902094023 50 0 0.0 2.0 0.00 0.00 0.00 69 1018.4
20260902093522 50 0 0.0 2.0 0.00 0.00 0.00 69 1018.4
20260902093043 50 0 0.0 3.0 0.00 0.00 0.00 70 1018.6
20260902092523 50 61 1.0 3.0 0.00 0.00 0.00 70 1018.6
20260902092021 50 54 1.0 3.0 0.00 0.00 0.00 71 1018.7
20260902091542 50 65 1.0 3.0 0.00 0.00 0.00 71 1018.6
20260902091021 50 59 1.0 3.0 0.00 0.00 0.00 71 1018.6
20260902090524 49 55 1.0 3.0 0.00 0.00 0.00 71 1018.6
20260902090047 49 0 0.0 3.0 0.00 0.00 0.00 72 1018.6
20260902085521 49 67 1.0 3.0 0.00 0.00 0.00 72 1018.6
20260902085022 49 67 1.0 3.0 0.00 0.00 0.00 72 1018.6
20260902084541 49 67 1.0 3.0 0.00 0.00 0.00 72 1018.6
20260902084021 49 0 0.0 3.0 0.00 0.00 0.00 72 1018.7
20260902083521 49 0 1.0 3.0 0.00 0.00 0.00 72 1018.7
20260902083051 49 59 1.0 3.0 0.00 0.00 0.00 72 1018.6
20260902082520 49 58 1.0 2.0 0.00 0.00 0.00 73 1018.7
20260902082020 49 58 1.0 3.0 0.00 0.00 0.00 73 1018.7
20260902081547 49 58 0.0 3.0 0.00 0.00 0.00 74 1018.7
20260902081020 49 57 1.0 3.0 0.00 0.00 0.00 74 1018.6
20260902080521 49 0 0.0 3.0 0.00 0.00 0.00 75 1018.7
20260902080047 49 0 0.0 0.0 0.00 0.00 0.00 75 1018.7
20260902075521 48 0 0.0 3.0 0.00 0.00 0.00 76 1018.7
20260902075021 48 0 0.0 4.0 0.00 0.00 0.00 77 1018.6
20260902074541 48 44 2.0 4.0 0.00 0.00 0.00 77 1018.6
20260902074020 48 63 1.0 3.0 0.00 0.00 0.00 78 1018.6
20260902073520 48 59 0.0 3.0 0.00 0.00 0.00 78 1018.6
20260902073054 47 65 1.0 3.0 0.00 0.00 0.00 79 1018.6
20260902072520 47 62 1.0 3.0 0.00 0.00 0.00 80 1018.6
20260902072021 47 63 1.0 3.0 0.00 0.00 0.00 81 1018.5
20260902071547 47 61 1.0 4.0 0.00 0.00 0.00 82 1018.5
20260902071026 47 50 1.0 4.0 0.00 0.00 0.00 83 1018.5
20260902070524 47 0 0.0 0.0 0.00 0.00 0.00 83 1018.4
20260902070045 46 0 0.0 0.0 0.00 0.00 0.00 84 1018.4
20260902065527 46 0 0.0 0.0 0.00 0.00 0.00 84 1018.5
20260902065022 46 0 0.0 0.0 0.00 0.00 0.00 84 1018.4
20260902064546 46 0 0.0 2.0 0.00 0.00 0.00 85 1018.4
20260902064019 46 0 0.0 3.0 0.00 0.00 0.00 85 1018.4
20260902063519 46 0 0.0 4.0 0.00 0.00 0.00 85 1018.6
20260902063046 46 43 2.0 4.0 0.00 0.00 0.00 86 1018.6
20260902062523 46 55 1.0 3.0 0.00 0.00 0.00 87 1018.8
20260902062024 46 0 0.0 0.0 0.00 0.00 0.00 87 1018.8
20260902061550 46 0 0.0 0.0 0.00 0.00 0.00 86 1018.9
20260902061021 46 0 0.0 0.0 0.00 0.00 0.00 85 1018.9
20260902060519 46 0 0.0 2.0 0.00 0.00 0.00 85 1018.7
20260902055520 46 90 1.0 2.0 0.00 0.00 0.00 85 1018.9
20260902055020 47 0 0.0 0.0 0.00 0.00 0.00 84 1019.0
20260902054542 47 0 0.0 0.0 0.00 0.00 0.00 84 1019.0
20260902054028 47 0 0.0 0.0 0.00 0.00 0.00 84 1019.0
20260902053530 47 0 0.0 0.0 0.00 0.00 0.00 83 1019.2
20260902053042 47 0 0.0 0.0 0.00 0.00 0.00 83 1019.2
20260902052521 47 0 0.0 0.0 0.00 0.00 0.00 82 1019.1
20260902052021 47 0 0.0 0.0 0.00 0.00 0.00 82 1019.2
20260902051540 48 0 0.0 0.0 0.00 0.00 0.00 82 1019.2
20260902051021 48 0 0.0 0.0 0.00 0.00 0.00 80 1019.2
20260902050524 48 0 0.0 0.0 0.00 0.00 0.00 80 1019.0
20260902050041 48 0 0.0 0.0 0.00 0.00 0.00 80 1019.1
20260902045518 49 0 0.0 0.0 0.00 0.00 0.00 80 1019.0
20260902045025 49 0 0.0 0.0 0.00 0.00 0.00 79 1018.9
20260902044549 49 0 0.0 0.0 0.00 0.00 0.00 79 1018.9
20260902044025 49 0 0.0 0.0 0.00 0.00 0.00 78 1018.9
20260902043523 49 0 0.0 0.0 0.00 0.00 0.00 77 1018.8
20260902043052 50 0 0.0 0.0 0.00 0.00 0.00 76 1018.7
20260902042521 50 0 0.0 0.0 0.00 0.00 0.00 76 1018.6
20260902042021 50 0 0.0 3.0 0.00 0.00 0.00 75 1018.6
20260902041542 50 0 0.0 4.0 0.00 0.00 0.00 75 1018.6
20260902041021 50 229 1.0 4.0 0.00 0.00 0.00 74 1018.6
20260902040525 51 0 0.0 3.0 0.00 0.00 0.00 73 1018.6
20260902040051 51 0 0.0 3.0 0.00 0.00 0.00 72 1018.6
20260902035521 51 78 0.0 3.0 0.00 0.00 0.00 72 1018.4
20260902035023 52 202 0.0 2.0 0.00 0.00 0.00 70 1018.4
20260902034541 52 202 0.0 2.0 0.00 0.00 0.00 70 1018.3
20260902034022 52 202 0.0 1.0 0.00 0.00 0.00 70 1018.3
20260902033521 53 0 0.0 0.0 0.00 0.00 0.00 69 1018.2
20260902033044 53 0 0.0 2.0 0.00 0.00 0.00 69 1018.2
20260902032521 53 0 0.0 3.0 0.00 0.00 0.00 69 1018.2
20260902032025 53 0 0.0 3.0 0.00 0.00 0.00 69 1018.1
20260902031542 53 0 0.0 3.0 0.00 0.00 0.00 68 1018.1
20260902031027 53 0 1.0 3.0 0.00 0.00 0.00 67 1018.1
20260902030521 54 212 1.0 2.0 0.00 0.00 0.00 67 1018.1
20260902030040 54 0 0.0 2.0 0.00 0.00 0.00 66 1017.9
20260902025523 54 0 0.0 1.0 0.00 0.00 0.00 65 1018.0
20260902025023 55 0 0.0 2.0 0.00 0.00 0.00 64 1017.9
20260902024545 55 0 0.0 3.0 0.00 0.00 0.00 64 1017.8
20260902024020 55 0 0.0 3.0 0.00 0.00 0.00 64 1017.6
20260902023520 55 210 0.0 3.0 0.00 0.00 0.00 63 1017.7
20260902023046 55 0 0.0 2.0 0.00 0.00 0.00 63 1017.6
20260902022520 56 0 0.0 4.0 0.00 0.00 0.00 62 1017.5
20260902022028 56 0 2.0 5.0 0.00 0.00 0.00 62 1017.5
20260902021540 57 223 2.0 5.0 0.00 0.00 0.00 61 1017.6
20260902021024 57 235 1.0 5.0 0.00 0.00 0.00 60 1017.6
20260902020523 57 194 2.0 5.0 0.00 0.00 0.00 60 1017.5
20260902020041 57 242 3.0 7.0 0.00 0.00 0.00 60 1017.5
20260902015521 58 246 3.0 7.0 0.00 0.00 0.00 59 1017.5
20260902015022 58 232 2.0 5.0 0.00 0.00 0.00 59 1017.4
20260902014539 59 186 3.0 6.0 0.00 0.00 0.00 58 1017.4
20260902014020 59 222 3.0 6.0 0.00 0.00 0.00 58 1017.4
20260902013522 59 200 2.0 7.0 0.00 0.00 0.00 57 1017.4
20260902013041 60 218 2.0 7.0 0.00 0.00 0.00 57 1017.4
20260902012528 60 200 2.0 7.0 0.00 0.00 0.00 56 1017.4
20260902012020 60 197 1.0 6.0 0.00 0.00 0.00 56 1017.5
20260902011551 61 215 3.0 6.0 0.00 0.00 0.00 55 1017.4
20260902011023 61 184 2.0 7.0 0.00 0.00 0.00 55 1017.3
20260902010523 61 190 2.0 7.0 0.00 0.00 0.00 54 1017.4
20260902010040 61 195 4.0 7.0 0.00 0.00 0.00 55 1017.4
20260902005521 61 230 2.0 6.0 0.00 0.00 0.00 55 1017.4
20260902005024 61 206 2.0 6.0 0.00 0.00 0.00 55 1017.4
20260902004541 61 0 1.0 6.0 0.00 0.00 0.00 55 1017.5
20260902004027 61 185 4.0 6.0 0.00 0.00 0.00 54 1017.5
20260902003521 61 190 3.0 6.0 0.00 0.00 0.00 54 1017.4
20260902003042 62 227 3.0 7.0 0.00 0.00 0.00 54 1017.4
20260902002521 61 229 3.0 8.0 0.00 0.00 0.00 55 1017.5
20260902002023 61 201 5.0 8.0 0.00 0.00 0.00 55 1017.4
20260902001541 61 186 2.0 9.0 0.00 0.00 0.00 54 1017.4
20260902001021 62 229 5.0 9.0 0.00 0.00 0.00 54 1017.5
20260902000520 62 211 2.0 6.0 0.00 0.00 0.00 54 1017.4
20260902000042 62 242 1.0 8.0 0.00 0.00 0.00 54 1017.4
20260901235608 62 201 3.0 8.0 0.00 0.00 0.00 55 1017.5
20260901235024 62 254 4.0 8.0 0.00 0.00 0.00 54 1017.7
20260901234559 62 240 2.0 12.0 0.00 0.00 0.00 54 1017.6
20260901234025 62 205 6.0 12.0 0.00 0.00 0.00 54 1017.6
20260901233528 62 264 3.0 10.0 0.00 0.00 0.00 54 1017.7
20260901233054 63 211 4.0 10.0 0.00 0.00 0.00 54 1017.7
20260901232524 62 211 4.0 7.0 0.00 0.00 0.00 55 1017.7
20260901232030 62 202 1.0 7.0 0.00 0.00 0.00 53 1017.7
20260901231547 62 198 3.0 7.0 0.00 0.00 0.00 56 1017.8
20260901231024 61 215 3.0 8.0 0.00 0.00 0.00 57 1017.8
20260901230526 60 227 3.0 9.0 0.00 0.00 0.00 58 1017.8
20260901230107 60 215 5.0 9.0 0.00 0.00 0.00 57 1017.8
20260901225525 62 231 3.0 7.0 0.00 0.00 0.00 55 1017.8
20260901225025 61 210 4.0 8.0 0.00 0.00 0.00 56 1017.7
20260901224545 61 250 3.0 8.0 0.00 0.00 0.00 55 1017.7
20260901224023 62 226 4.0 8.0 0.00 0.00 0.00 54 1017.6
20260901223522 62 239 3.0 7.0 0.00 0.00 0.00 53 1017.6
20260901223042 62 221 1.0 7.0 0.00 0.00 0.00 52 1017.6
20260901222525 63 222 3.0 8.0 0.00 0.00 0.00 51 1017.7
20260901222027 63 221 4.0 8.0 0.00 0.00 0.00 50 1017.7
20260901221612 63 215 3.0 8.0 0.00 0.00 0.00 49 1017.7
20260901221024 64 188 3.0 8.0 0.00 0.00 0.00 49 1017.8
20260901220528 64 216 2.0 8.0 0.00 0.00 0.00 48 1017.9
20260901220100 64 229 3.0 7.0 0.00 0.00 0.00 46 1018.1
20260901215521 64 191 3.0 9.0 0.00 0.00 0.00 47 1018.0
20260901215023 64 195 4.0 9.0 0.00 0.00 0.00 47 1018.0
20260901214550 65 223 3.0 10.0 0.00 0.00 0.00 44 1018.0
20260901214024 66 42 4.0 10.0 0.00 0.00 0.00 46 1018.0
20260901213524 65 228 4.0 8.0 0.00 0.00 0.00 47 1018.1
20260901213057 65 219 3.0 8.0 0.00 0.00 0.00 50 1018.0
20260901212525 65 206 3.0 8.0 0.00 0.00 0.00 50 1018.1
20260901212026 65 225 4.0 8.0 0.00 0.00 0.00 45 1018.1
20260901211546 65 225 3.0 12.0 0.00 0.00 0.00 45 1017.9
20260901211023 64 323 4.0 12.0 0.00 0.00 0.00 45 1018.1
20260901210524 64 184 5.0 11.0 0.00 0.00 0.00 45 1018.0
20260901210041 65 215 3.0 13.0 0.00 0.00 0.00 46 1018.0
20260901205523 65 207 5.0 13.0 0.00 0.00 0.00 46 1018.0
20260901205029 65 74 4.0 10.0 0.00 0.00 0.00 46 1018.0
20260901204542 64 248 5.0 10.0 0.00 0.00 0.00 47 1018.0
20260901204024 64 184 5.0 10.0 0.00 0.00 0.00 47 1018.0
20260901203520 65 175 3.0 8.0 0.00 0.00 0.00 48 1018.0
20260901203041 65 198 3.0 11.0 0.00 0.00 0.00 47 1018.0
20260901202523 65 186 3.0 11.0 0.00 0.00 0.00 47 1018.0
20260901202022 65 176 3.0 9.0 0.00 0.00 0.00 47 1018.0
20260901201540 65 191 3.0 9.0 0.00 0.00 0.00 47 1017.9
20260901201018 65 207 3.0 11.0 0.00 0.00 0.00 44 1017.9
20260901200520 66 183 4.0 11.0 0.00 0.00 0.00 42 1018.0
20260901200107 66 314 5.0 10.0 0.00 0.00 0.00 42 1018.0
20260901195520 66 225 4.0 15.0 0.00 0.00 0.00 42 1017.9
20260901195020 66 186 5.0 15.0 0.00 0.00 0.00 43 1017.9
20260901194555 65 220 4.0 11.0 0.00 0.00 0.00 43 1017.9
20260901194026 65 194 4.0 13.0 0.00 0.00 0.00 45 1017.9
20260901193525 65 125 5.0 14.0 0.00 0.00 0.00 46 1017.8
20260901193049 65 317 6.0 14.0 0.00 0.00 0.00 47 1018.0
20260901192523 65 227 3.0 11.0 0.00 0.00 0.00 48 1018.0
20260901192022 65 197 4.0 11.0 0.00 0.00 0.00 49 1017.9
20260901191620 64 202 5.0 11.0 0.00 0.00 0.00 50 1017.9
20260901191022 64 211 3.0 10.0 0.00 0.00 0.00 52 1017.9
20260901190524 64 227 3.0 7.0 0.00 0.00 0.00 54 1017.9
20260901190039 64 209 2.0 7.0 0.00 0.00 0.00 54 1017.9
20260901185522 63 195 2.0 7.0 0.00 0.00 0.00 56 1018.1
20260901185022 63 94 2.0 8.0 0.00 0.00 0.00 55 1018.1
20260901184540 63 186 3.0 10.0 0.00 0.00 0.00 56 1018.1
20260901184020 63 164 4.0 10.0 0.00 0.00 0.00 56 1018.1
20260901183520 62 196 1.0 9.0 0.00 0.00 0.00 59 1018.2
20260901183050 62 218 2.0 9.0 0.00 0.00 0.00 59 1018.1
20260901182520 62 101 1.0 10.0 0.00 0.00 0.00 60 1018.1
20260901182020 61 199 1.0 10.0 0.00 0.00 0.00 61 1018.1
20260901181547 61 193 3.0 7.0 0.00 0.00 0.00 59 1018.1
20260901181019 62 121 1.0 5.0 0.00 0.00 0.00 60 1018.3
20260901180525 61 249 1.0 7.0 0.00 0.00 0.00 62 1018.2
20260901180046 61 229 2.0 7.0 0.00 0.00 0.00 62 1018.1
20260901175522 61 169 2.0 6.0 0.00 0.00 0.00 61 1018.1
20260901175022 60 292 1.0 6.0 0.00 0.00 0.00 62 1018.1
20260901174544 60 261 1.0 6.0 0.00 0.00 0.00 62 1018.1
20260901174023 59 183 2.0 8.0 0.00 0.00 0.00 64 1018.1
20260901173520 59 217 2.0 8.0 0.00 0.00 0.00 64 1018.0
20260901173040 59 169 3.0 8.0 0.00 0.00 0.00 63 1017.8
20260901172519 59 270 1.0 6.0 0.00 0.00 0.00 63 1017.7
20260901172022 58 219 1.0 6.0 0.00 0.00 0.00 64 1017.7
20260901171541 58 197 2.0 5.0 0.00 0.00 0.00 64 1017.7
20260901171022 58 215 2.0 4.0 0.00 0.00 0.00 64 1017.6
20260901170523 58 237 1.0 4.0 0.00 0.00 0.00 64 1017.5
20260901170052 58 178 1.0 7.0 0.00 0.00 0.00 64 1017.6
20260901165521 58 203 3.0 7.0 0.00 0.00 0.00 63 1017.5
20260901165021 58 210 2.0 5.0 0.00 0.00 0.00 63 1017.5
20260901164542 57 224 1.0 5.0 0.00 0.00 0.00 64 1017.5
20260901164021 56 11 2.0 6.0 0.00 0.00 0.00 64 1017.5
20260901163521 56 0 0.0 6.0 0.00 0.00 0.00 65 1017.4
20260901163044 56 136 1.0 5.0 0.00 0.00 0.00 65 1017.3
20260901162520 55 17 1.0 6.0 0.00 0.00 0.00 66 1017.3
20260901162027 55 236 1.0 6.0 0.00 0.00 0.00 67 1017.2